Port Heiden, AK

8:08 AM AKDT on August 21, 2017 (GMT -0800)
Port Heiden

Weather History for PAPH - December, 2013

Change the Weather History Date:

Tuesday, December 10, 2013

  Actual Average Record
Temperature  
Mean Temperature 36 °F -  
Max Temperature 42 °F 28 °F 51 °F (1998)
Min Temperature 30 °F 19 °F 6 °F (2010)
Degree Days  
Heating Degree Days 29    
Moisture  
Dew Point 28 °F    
Average Humidity 74    
Maximum Humidity 86    
Minimum Humidity 49    
Precipitation  
Precipitation 0.00 in - - ()
Sea Level Pressure  
Sea Level Pressure 29.78 in    
Wind  
Wind Speed 11 mph (NNE)    
Max Wind Speed 22 mph    
Max Gust Speed 25 mph    
Visibility 9 miles    
Events      
Averages and records for this station are not official NWS values.
T = Trace of Precipitation, MM = Missing Value Source: NWS Daily Summary

Daily Weather History Graph

Daily Weather History Graph

Search for Another Location

Airport or City:

Trip Planner

Search our weather history database for the weather conditions in past years. The results will help you decide how hot, cold, wet, or windy it might be!

Date:

Astronomy

Dec. 10, 2013 Rise Set
Actual Time 10:01 AM AKST 4:53 PM AKST
Civil Twilight 9:12 AM AKST 5:42 PM AKST
Nautical Twilight 8:22 AM AKST 6:32 PM AKST
Astronomical Twilight 7:35 AM AKST 7:19 PM AKST
Moon 2:03 PM AKST (12/10) 2:23 AM AKST (12/10)
Length of Visible Light 8h 29m
Length of Day
6h 51m
Waxing Gibbous, 63% of the Moon is Illuminated
Dec 10
Waxing Gibbous
Dec 17
Full
Dec 25
Last Quarter
Jan 1
New
Jan 7
First Quarter

Hourly Weather History & Observations

Time (AKST) Temp. Windchill Dew Point Humidity Pressure Visibility Wind Dir Wind Speed Gust Speed Precip Events Conditions
12:16 AM 41.0 °F 38.0 °F 28.4 °F 61% 30.02 in 10.0 mi NW 4.6 mph - N/A   Mostly Cloudy
12:36 AM 42.8 °F 41.1 °F 28.4 °F 57% 30.01 in 10.0 mi NW 3.5 mph - N/A   Overcast
12:56 AM 39.2 °F 37.0 °F 28.4 °F 65% 30.00 in 10.0 mi NE 3.5 mph - N/A   Overcast
1:16 AM 42.8 °F 40.1 °F 28.4 °F 57% 29.99 in 10.0 mi WNW 4.6 mph - N/A   Overcast
1:36 AM 41.0 °F 37.1 °F 28.4 °F 61% 29.99 in 10.0 mi WNW 5.8 mph - N/A   Overcast
1:56 AM 41.0 °F 36.4 °F 28.4 °F 61% 29.98 in 10.0 mi NW 6.9 mph - N/A   Overcast
2:16 AM 41.0 °F 38.0 °F 28.4 °F 61% 29.97 in 10.0 mi WNW 4.6 mph - N/A   Overcast
2:36 AM 39.2 °F - 28.4 °F 65% 29.97 in 10.0 mi Calm Calm - N/A   Overcast
2:56 AM 41.0 °F 38.0 °F 28.4 °F 61% 29.96 in 10.0 mi NNE 4.6 mph - N/A   Overcast
3:16 AM 41.0 °F 35.2 °F 28.4 °F 61% 29.95 in 10.0 mi ENE 9.2 mph - N/A   Overcast
3:36 AM 39.2 °F 32.0 °F 30.2 °F 70% 29.94 in 10.0 mi NNE 11.5 mph - N/A   Mostly Cloudy
3:56 AM 37.4 °F 32.1 °F 30.2 °F 75% 29.93 in 10.0 mi NNE 6.9 mph - N/A   Overcast
4:16 AM 37.4 °F 28.9 °F 30.2 °F 75% 29.92 in 10.0 mi NNE 13.8 mph - N/A   Overcast
4:36 AM 37.4 °F 28.9 °F 30.2 °F 75% 29.91 in 10.0 mi NE 13.8 mph - N/A   Overcast
4:56 AM 37.4 °F 27.8 °F 30.2 °F 75% 29.90 in 10.0 mi NNE 17.3 mph - N/A   Overcast
5:16 AM 37.4 °F 27.8 °F 30.2 °F 75% 29.88 in 10.0 mi NE 17.3 mph 20.7 mph N/A   Overcast
5:36 AM 37.4 °F 28.5 °F 30.2 °F 75% 29.88 in 10.0 mi NNE 15.0 mph - N/A   Overcast
5:56 AM 37.4 °F 28.5 °F 30.2 °F 75% 29.87 in 10.0 mi NE 15.0 mph - N/A   Overcast
6:16 AM 35.6 °F 26.6 °F 30.2 °F 81% 29.87 in 10.0 mi NE 13.8 mph - N/A   Overcast
6:36 AM 37.4 °F 28.9 °F 30.2 °F 75% 29.86 in 10.0 mi NE 13.8 mph - N/A   Overcast
6:56 AM 37.4 °F 29.3 °F 30.2 °F 75% 29.85 in 10.0 mi NE 12.7 mph - N/A   Overcast
7:16 AM 37.4 °F 28.9 °F 30.2 °F 75% 29.84 in 10.0 mi ENE 13.8 mph - N/A   Overcast
7:36 AM 37.4 °F 28.9 °F 30.2 °F 75% 29.84 in 10.0 mi NE 13.8 mph - N/A   Overcast
7:56 AM 37.4 °F 29.8 °F 30.2 °F 75% 29.83 in 10.0 mi NE 11.5 mph - N/A   Overcast
8:56 AM 37.4 °F 29.3 °F 30.2 °F 75% 29.81 in 10.0 mi NE 12.7 mph - N/A   Overcast
9:16 AM 35.6 °F 26.2 °F 30.2 °F 81% 29.80 in 10.0 mi NE 15.0 mph - N/A   Overcast
9:36 AM 35.6 °F 25.2 °F 30.2 °F 81% 29.80 in 10.0 mi NE 18.4 mph - N/A   Overcast
9:56 AM 35.6 °F 25.2 °F 30.2 °F 81% 29.80 in 10.0 mi NE 18.4 mph - N/A   Overcast
10:16 AM 35.6 °F 25.9 °F 30.2 °F 81% 29.79 in 10.0 mi NE 16.1 mph - N/A   Overcast
10:36 AM 35.6 °F 25.9 °F 30.2 °F 81% 29.78 in 10.0 mi NE 16.1 mph - N/A   Overcast
10:56 AM 35.6 °F 26.6 °F 30.2 °F 81% 29.78 in 10.0 mi NE 13.8 mph - N/A   Overcast
11:16 AM 35.6 °F 25.5 °F 30.2 °F 81% 29.78 in 10.0 mi NE 17.3 mph 21.9 mph N/A   Overcast
11:36 AM 35.6 °F 25.9 °F 28.4 °F 75% 29.78 in 10.0 mi NE 16.1 mph - N/A   Overcast
11:56 AM 35.6 °F 25.5 °F 28.4 °F 75% 29.77 in 10.0 mi NE 17.3 mph - N/A   Overcast
12:16 PM 35.6 °F 25.5 °F 28.4 °F 75% 29.76 in 10.0 mi NE 17.3 mph - N/A   Overcast
12:36 PM 35.6 °F 24.8 °F 28.4 °F 75% 29.75 in 10.0 mi NE 19.6 mph 25.3 mph N/A   Overcast
12:56 PM 35.6 °F 25.9 °F 28.4 °F 75% 29.74 in 10.0 mi NE 16.1 mph 21.9 mph N/A   Overcast
1:16 PM 35.6 °F 26.2 °F 28.4 °F 75% 29.73 in 10.0 mi NE 15.0 mph - N/A   Overcast
1:36 PM 35.6 °F 25.5 °F 28.4 °F 75% 29.73 in 10.0 mi NE 17.3 mph - N/A   Overcast
1:56 PM 35.6 °F 26.2 °F 26.6 °F 70% 29.72 in 10.0 mi NNE 15.0 mph - N/A   Overcast
2:16 PM 35.6 °F 26.2 °F 28.4 °F 75% 29.71 in 10.0 mi NNE 15.0 mph - N/A   Overcast
2:36 PM 35.6 °F 26.6 °F 28.4 °F 75% 29.70 in 10.0 mi NNE 13.8 mph - N/A   Overcast
2:56 PM 35.6 °F 27.1 °F 28.4 °F 75% 29.69 in 10.0 mi NNE 12.7 mph - N/A   Overcast
3:16 PM 35.6 °F 25.9 °F 28.4 °F 75% 29.69 in 10.0 mi NNE 16.1 mph - N/A   Overcast
3:36 PM 35.6 °F 25.5 °F 28.4 °F 75% 29.69 in 10.0 mi NNE 17.3 mph - N/A   Overcast
3:56 PM 35.6 °F 25.2 °F 28.4 °F 75% 29.68 in 10.0 mi NE 18.4 mph - N/A   Overcast
4:16 PM 35.6 °F 25.9 °F 28.4 °F 75% 29.67 in 10.0 mi NE 16.1 mph - N/A   Overcast
4:36 PM 35.6 °F 25.2 °F 28.4 °F 75% 29.67 in 10.0 mi NE 18.4 mph 21.9 mph N/A   Overcast
4:56 PM 35.6 °F 26.6 °F 28.4 °F 75% 29.67 in 10.0 mi NNE 13.8 mph - N/A   Overcast
5:16 PM 35.6 °F 27.1 °F 28.4 °F 75% 29.66 in 10.0 mi NE 12.7 mph - N/A   Overcast
5:36 PM 35.6 °F 24.8 °F 28.4 °F 75% 29.66 in 10.0 mi NE 19.6 mph - N/A   Overcast
5:56 PM 35.6 °F 24.2 °F 28.4 °F 75% 29.66 in 10.0 mi NE 21.9 mph - N/A   Overcast
6:16 PM 33.8 °F 22.8 °F 28.4 °F 81% 29.66 in 10.0 mi NE 18.4 mph 24.2 mph N/A   Overcast
6:36 PM 33.8 °F 22.8 °F 26.6 °F 75% 29.66 in 10.0 mi NE 18.4 mph 24.2 mph N/A   Overcast
6:56 PM 33.8 °F 23.2 °F 26.6 °F 75% 29.66 in 10.0 mi NE 17.3 mph - N/A   Overcast
7:16 PM 33.8 °F 23.9 °F 26.6 °F 75% 29.66 in 10.0 mi NE 15.0 mph - N/A   Overcast
7:36 PM 33.8 °F 23.2 °F 26.6 °F 75% 29.66 in 10.0 mi NE 17.3 mph - N/A   Overcast
7:56 PM 33.8 °F 22.8 °F 26.6 °F 75% 29.65 in 10.0 mi NE 18.4 mph - N/A   Overcast
8:16 PM 33.8 °F 22.8 °F 26.6 °F 75% 29.65 in 10.0 mi NE 18.4 mph - N/A   Overcast
8:36 PM 32.0 °F 21.2 °F 26.6 °F 80% 29.65 in 1.8 mi NE 16.1 mph 20.7 mph N/A   Overcast
8:56 PM 32.0 °F 21.6 °F 26.6 °F 80% 29.66 in 0.8 mi NE 15.0 mph - N/A   Overcast
9:16 PM 32.0 °F 20.8 °F 26.6 °F 80% 29.66 in 0.5 mi NE 17.3 mph - N/A   Overcast
9:36 PM 32.0 °F 21.2 °F 26.6 °F 80% 29.65 in 0.8 mi NE 16.1 mph - N/A   Overcast
9:56 PM 32.0 °F 21.2 °F 26.6 °F 80% 29.65 in 1.0 mi NE 16.1 mph - N/A   Overcast
10:16 PM 30.2 °F 18.9 °F 26.6 °F 86% 29.65 in 1.0 mi NE 16.1 mph 19.6 mph N/A   Overcast
10:36 PM 30.2 °F 18.9 °F 26.6 °F 86% 29.65 in 1.2 mi NE 16.1 mph - N/A   Overcast
10:56 PM 30.2 °F 20.8 °F 24.8 °F 80% 29.65 in 1.8 mi NNE 11.5 mph - N/A   Overcast
11:16 PM 30.2 °F 18.9 °F 24.8 °F 80% 29.65 in 1.5 mi NNE 16.1 mph 20.7 mph N/A   Overcast
11:36 PM 30.2 °F 19.3 °F 24.8 °F 80% 29.64 in 1.2 mi NNE 15.0 mph - N/A   Overcast
11:56 PM 30.2 °F 19.3 °F 24.8 °F 80% 29.65 in 2.5 mi NNE 15.0 mph - N/A   Overcast